User: anonymous   Login
Location: Unspecified
(0.0000°N, 0.0000°E)
Time: 20:11:05
(UTC+00:00)
Language:

STARLINK-35793 - Orbit

View from above orbital plane
View from above orbital plane
View from above satellite
View from above satellite

Ground track
Ground track

The orbit is defined by the following mean orbital elements,

1 67179U          26145.56916360 +.00000000 +00000-0 +10951-2 0 00005
2 67179  43.0034 236.4738 0001858 267.0053  93.0586 15.27622435    02
Epoch (UTC): 25 May 2026 13:39:35
Eccentricity: 0.0001858
inclination: 43.0034°
perigee height: 482 km
apogee height: 484 km
right ascension of ascending node: 236.4738°
argument of perigee: 267.0053°
revolutions per day: 15.27622435
mean anomaly at epoch: 93.0586°

The dashed part of the orbit path shows where the satellite is in the earth's shadow,  

DLR